Theta_e
350 347 336 334 334 334 334 335 335 335 335 335 336 337 337 337 337 336 336 335 330 326 328 324 313 309 310 310 311 312 315 318 318 318 322 329 332 332 333 333 335 337 339 339 339 338 338 338 337 338 338 338 337 336 335 335 335 336 336 335 334 333 333 333 332 333 333 333 334 335 335 336 336 336 336 335 335 336 337 336 336 335 333 332 331
351 346 337 334 334 334 335 335 335 335 335 334 335 336 337 337 337 336 336 334 329 324 326 320 310 310 310 310 312 311 316 320 321 322 326 331 332 333 334 336 338 338 340 339 339 338 338 338 338 338 338 338 337 336 336 335 335 335 335 335 335 335 334 333 332 332 330 331 332 333 334 334 335 335 335 335 335 335 336 334 333 332 330 329 328
350 346 337 334 335 334 335 335 335 335 334 334 334 335 336 336 337 336 335 334 329 324 324 316 309 310 310 311 312 312 315 320 323 325 328 330 332 335 337 338 339 339 340 339 338 338 338 338 338 338 338 338 337 336 335 335 335 335 335 335 335 334 331 329 328 328 328 329 332 334 335 334 335 335 335 335 335 335 334 332 331 327 323 323 321
349 346 337 334 335 335 336 336 335 335 334 334 333 335 335 336 336 336 335 333 329 324 321 312 309 310 310 311 312 312 315 320 325 329 331 331 333 337 338 338 339 339 340 339 338 338 338 338 338 338 337 337 336 336 335 335 335 335 335 334 334 332 327 323 321 325 327 329 331 333 335 334 333 333 334 334 334 333 332 329 326 322 320 320 319
348 346 339 334 335 335 336 336 335 335 333 333 333 333 334 336 336 335 334 332 329 323 317 310 309 310 310 312 312 313 314 318 324 331 334 333 334 338 339 339 339 339 339 339 339 339 338 338 337 337 336 336 335 335 334 333 331 329 328 327 328 328 327 321 317 324 329 331 331 331 333 333 333 331 330 330 328 326 325 321 316 319 325 325 323
347 345 340 335 335 336 336 336 335 334 333 332 332 332 334 335 335 335 333 332 328 320 313 309 310 310 311 312 312 313 314 317 322 330 333 332 334 338 339 338 339 339 339 339 339 339 337 336 335 334 334 333 332 329 325 321 318 316 314 314 315 318 320 315 316 327 330 330 330 331 332 332 334 331 324 324 321 317 318 316 312 319 327 326 326
347 345 341 337 336 336 336 336 335 334 331 330 330 331 332 334 334 334 333 331 325 316 310 309 310 310 312 312 312 312 313 317 321 327 332 333 334 337 339 339 339 339 338 338 338 337 335 334 333 332 330 329 327 320 314 312 310 309 309 308 309 311 312 311 318 330 331 331 331 331 331 332 334 330 321 319 318 316 317 314 311 317 321 322 324
347 345 343 341 338 336 337 336 335 333 330 328 328 329 331 333 333 333 332 328 321 312 310 309 310 311 312 312 312 312 313 317 321 327 331 333 335 336 338 338 338 338 338 337 337 336 334 333 332 330 329 327 323 315 310 309 309 308 308 308 308 309 311 314 323 329 330 330 330 330 330 331 330 329 325 320 320 322 324 318 312 314 317 316 317
347 345 343 343 339 335 336 335 334 331 328 325 326 328 329 331 332 331 329 324 316 310 310 309 310 311 312 313 312 312 313 316 321 327 330 331 334 336 337 338 337 337 337 336 335 332 330 329 329 329 326 322 315 311 309 309 308 308 309 308 308 310 315 323 328 330 330 330 331 331 331 332 329 328 326 322 325 328 328 322 313 313 315 314 311
347 346 344 344 340 335 337 335 334 330 325 323 324 326 328 329 330 328 325 319 312 309 310 309 310 311 312 313 313 313 313 315 318 324 326 326 330 332 332 334 335 335 335 334 331 328 325 323 323 321 318 314 310 309 309 309 309 309 309 308 311 318 325 328 329 329 330 330 330 330 328 328 328 328 322 319 325 326 323 318 312 310 312 312 310
347 346 345 345 339 336 336 335 333 328 323 321 323 324 325 326 326 325 321 315 310 309 309 309 310 311 312 313 313 313 313 313 314 319 320 321 323 325 325 327 330 332 332 329 326 323 320 317 316 314 312 310 309 309 309 310 309 309 310 311 316 326 331 330 330 329 330 330 329 328 326 323 324 324 319 318 320 319 317 313 309 308 309 308 308
347 346 346 345 339 336 336 334 330 324 322 322 322 323 323 323 323 322 318 312 309 309 309 309 310 310 312 312 313 314 313 312 313 315 317 319 320 321 321 322 326 328 327 324 322 319 317 316 314 312 310 309 309 310 310 310 310 310 311 314 320 327 331 331 331 331 330 331 330 329 327 322 320 317 313 313 313 313 313 310 308 307 307 307 307
347 347 347 345 338 336 335 332 327 323 323 322 322 322 321 321 321 319 316 312 310 309 309 310 310 310 311 312 313 313 314 312 312 314 316 318 318 319 320 321 323 325 324 322 321 319 318 318 315 311 309 309 309 310 310 310 311 311 312 316 323 328 331 332 331 332 331 330 330 328 323 317 313 310 308 308 309 310 310 310 309 307 307 307 308
347 347 348 344 337 336 334 329 324 322 322 322 322 321 320 320 319 317 314 312 310 309 310 310 310 311 311 312 313 313 314 313 312 313 315 317 317 319 320 321 323 324 323 321 321 321 321 319 315 310 308 309 309 310 310 311 311 311 313 315 322 327 330 333 332 333 333 331 328 323 317 312 310 309 309 309 309 310 310 310 309 308 309 308 308
348 347 347 343 338 337 333 326 322 321 321 321 321 321 320 319 317 315 313 313 311 310 310 310 310 311 311 312 313 313 313 313 312 312 313 315 316 318 320 321 323 323 323 322 322 323 323 320 316 311 308 309 309 310 310 310 311 311 313 314 321 327 330 332 332 332 332 331 325 317 312 311 311 310 309 309 310 310 310 310 310 312 314 313 313
349 348 346 343 339 338 331 324 321 320 321 320 321 320 319 317 315 314 314 313 312 311 311 310 311 311 311 312 312 312 313 313 312 312 312 314 315 316 319 321 322 323 322 321 322 323 323 321 318 313 309 309 309 309 310 310 310 311 312 313 318 325 330 333 333 331 330 330 323 313 312 312 311 311 311 311 310 310 310 311 311 313 314 313 314
348 347 346 343 340 339 332 324 320 320 321 319 318 316 315 315 314 314 314 313 313 312 312 311 311 311 311 311 312 312 312 312 311 312 312 313 314 315 317 320 322 323 322 322 322 322 323 322 321 317 312 311 311 311 311 311 311 311 311 313 315 321 329 332 334 333 332 332 324 312 312 312 312 312 312 312 311 311 310 311 311 311 312 312 312
347 346 345 343 342 340 334 325 319 321 325 322 319 318 318 318 318 318 316 316 316 315 314 314 312 312 312 312 312 311 312 312 311 311 312 312 312 314 316 318 320 323 323 323 323 322 323 322 322 321 317 315 314 313 313 314 314 314 314 314 315 319 326 330 332 332 332 329 319 311 312 312 312 312 312 312 311 311 311 311 311 311 311 311 312
346 345 344 342 342 341 338 328 318 322 328 328 327 327 327 327 326 325 323 322 322 321 320 318 316 314 313 312 312 314 316 314 312 311 311 312 312 312 316 318 319 321 323 324 325 323 323 323 322 321 321 319 318 317 317 317 316 316 315 315 319 324 329 332 332 333 332 325 314 311 312 312 311 311 311 311 311 311 311 311 311 311 312 312 311
345 344 342 342 341 339 339 330 319 323 328 328 330 331 331 331 331 330 329 328 327 326 325 324 322 318 315 314 313 317 319 316 313 311 311 311 312 312 314 318 319 320 322 325 326 324 325 325 323 321 320 320 320 320 320 319 319 319 317 319 321 328 333 333 332 332 330 321 313 314 313 312 312 310 311 310 311 311 311 311 311 311 311 311 311
344 344 343 343 341 339 338 331 326 328 330 331 332 334 334 333 332 332 331 330 330 329 329 328 326 323 322 320 319 321 321 318 315 312 311 311 312 312 313 318 321 320 320 323 326 326 326 326 325 323 320 319 319 319 320 320 320 320 320 320 321 329 334 333 333 333 332 323 314 314 313 313 312 311 310 310 310 310 310 311 311 311 310 310 310
344 344 343 343 341 340 337 333 333 334 335 336 335 335 336 335 334 333 332 331 332 332 332 331 329 329 329 330 332 331 329 327 322 317 313 311 312 312 312 316 321 322 320 321 324 326 326 326 326 325 322 319 317 317 319 320 321 321 321 323 327 332 335 335 334 334 333 327 316 316 315 313 313 312 311 310 310 309 309 310 310 309 309 310 310
345 344 343 342 341 340 338 337 336 336 337 337 336 336 336 337 337 334 334 334 334 334 334 333 331 331 332 335 337 336 336 335 332 327 320 314 312 311 312 315 319 322 322 321 323 325 326 326 326 327 325 321 321 324 323 320 320 321 323 328 332 333 333 334 334 333 332 325 317 318 317 315 315 313 312 311 310 309 309 309 309 309 309 309 309
345 345 343 341 340 340 340 338 336 336 338 337 336 336 336 338 338 336 336 336 336 336 336 335 334 334 334 337 338 338 338 338 336 334 328 319 313 312 311 314 317 319 322 323 322 324 326 327 327 328 326 325 330 334 331 326 322 325 330 332 333 333 333 334 333 333 331 325 319 319 318 317 316 315 315 313 311 310 310 309 308 309 309 308 308
345 344 343 342 341 340 340 339 337 337 338 338 337 336 337 338 338 338 338 338 337 337 337 337 337 336 336 337 338 337 337 337 337 336 334 326 317 314 311 313 317 319 323 325 324 324 326 327 328 326 327 331 335 336 335 332 330 332 334 333 333 333 333 333 332 332 331 325 321 320 319 318 318 318 317 315 314 312 311 310 309 308 308 308 307
345 344 343 343 342 340 340 339 339 339 338 338 338 337 337 338 338 338 338 339 338 338 338 337 338 336 336 338 337 336 335 336 337 337 337 331 322 318 314 312 315 319 323 326 328 326 327 329 327 326 331 335 336 335 335 333 333 334 333 331 332 333 332 332 332 331 330 325 320 322 320 319 320 320 319 317 316 315 314 312 310 309 308 309 308
345 345 344 343 342 340 340 340 339 340 339 338 338 338 338 338 338 338 338 339 338 338 337 337 337 336 335 337 337 337 335 336 337 337 337 334 331 326 323 317 312 317 318 324 332 329 329 334 331 331 335 336 335 334 333 332 332 333 332 331 332 333 332 332 332 331 331 326 322 322 322 321 321 321 320 319 318 318 317 314 313 312 311 310 310
345 345 345 343 342 341 340 341 340 339 339 338 338 338 338 338 338 338 338 338 339 338 336 337 338 336 335 336 337 336 336 337 337 336 336 336 336 333 331 326 316 315 312 320 332 329 331 337 334 335 336 335 335 333 332 332 332 333 332 331 331 332 332 332 332 332 331 329 325 323 323 322 321 321 321 321 322 323 322 319 316 314 313 311 311
344 344 344 343 342 341 340 340 339 339 339 338 338 338 338 338 338 338 338 338 339 337 336 340 339 336 335 336 337 336 337 338 336 336 336 335 336 335 334 332 326 323 318 322 331 330 333 337 336 336 335 335 335 332 332 332 331 332 332 332 332 332 332 332 332 332 332 331 329 324 322 323 321 322 322 324 325 324 324 323 318 315 314 312 312
344 343 343 343 342 341 340 340 339 339 339 339 338 337 338 339 338 338 339 339 340 337 337 340 339 338 337 336 336 336 337 338 335 336 337 336 336 335 335 334 332 331 328 328 332 332 334 336 336 336 335 335 334 332 332 331 331 332 332 332 332 332 332 332 333 333 332 331 330 325 322 323 322 322 323 325 325 324 325 323 319 317 316 313 312
343 343 343 342 341 340 340 340 339 339 339 339 339 338 338 338 336 335 338 339 339 339 337 339 339 340 338 335 336 336 336 337 335 336 337 336 336 334 334 335 334 334 332 331 333 332 333 336 336 335 335 335 334 333 332 331 332 332 331 332 333 333 333 332 333 332 332 331 330 327 323 323 321 320 321 322 323 323 322 320 321 321 317 314 313
343 342 341 341 340 339 340 340 339 339 338 338 338 338 337 335 334 335 337 337 337 337 336 338 339 340 338 335 336 336 336 337 335 336 336 335 335 333 333 335 335 335 332 331 332 331 332 334 335 335 336 335 334 333 333 333 332 332 332 332 333 332 332 333 333 332 332 331 331 329 327 325 321 319 320 320 321 320 319 320 323 321 315 314 313
342 341 341 340 339 339 340 340 339 338 337 336 336 336 335 335 336 337 338 335 334 335 336 338 338 339 338 335 335 335 335 336 335 334 334 334 332 332 334 334 335 335 333 332 331 329 330 332 333 334 334 334 335 334 334 334 333 333 333 333 333 333 333 333 333 333 331 331 331 330 330 330 324 320 322 322 322 322 319 318 320 317 311 311 309
342 342 341 340 339 338 339 339 338 337 336 336 336 335 336 337 337 338 337 335 334 334 335 336 337 338 337 335 334 333 333 334 334 333 332 333 332 331 333 334 334 334 333 332 330 327 329 332 331 332 332 333 334 334 334 334 333 333 333 333 332 333 333 333 334 333 331 331 331 331 332 332 328 326 327 325 324 324 320 315 316 314 309 308 307
341 341 341 340 339 338 338 338 337 336 337 337 336 336 337 338 337 336 336 335 333 333 333 333 334 336 335 334 334 333 333 333 333 332 332 333 333 331 332 333 333 333 332 332 330 327 329 330 330 331 331 331 333 334 333 333 332 332 332 332 333 333 333 333 333 332 332 331 331 332 332 331 330 329 330 328 326 323 318 313 311 309 307 308 307
340 340 341 341 339 338 338 337 336 336 337 337 336 335 337 338 337 335 335 335 333 332 333 332 332 335 334 333 333 333 332 332 332 332 332 332 332 332 331 332 332 331 330 330 330 330 330 328 328 330 331 331 332 333 332 332 332 332 332 332 332 333 333 333 333 332 332 331 331 331 331 331 330 330 329 329 328 323 316 311 309 307 308 310 311
340 339 340 341 340 339 338 337 337 337 336 336 336 336 337 338 338 336 336 335 334 332 332 332 333 334 334 333 333 332 332 331 330 332 332 331 332 332 330 331 331 331 329 328 328 329 331 329 328 330 331 331 332 332 333 332 332 332 331 331 331 332 333 333 332 332 332 331 332 331 331 331 330 329 329 328 329 324 316 314 313 313 315 317 318
339 338 340 341 340 340 339 338 338 338 337 337 337 337 337 336 336 337 336 335 334 333 332 331 332 334 333 332 332 332 331 329 328 332 333 332 332 331 331 332 332 332 331 329 327 326 330 330 329 328 330 331 332 332 333 332 332 332 331 329 331 333 333 332 332 332 331 331 332 331 330 331 330 330 329 328 328 324 318 318 319 319 320 321 322
340 339 340 340 340 341 341 340 340 339 339 338 337 338 338 336 336 336 335 335 335 334 333 332 332 333 332 332 332 330 329 330 331 333 333 331 331 330 332 332 332 332 331 330 328 327 329 330 330 329 329 330 332 333 332 332 332 331 331 331 332 332 332 332 331 331 331 331 331 330 331 331 329 329 329 329 328 326 322 320 321 322 322 323 324
340 340 341 340 340 340 341 341 340 340 339 339 338 338 339 338 337 337 336 335 334 334 334 333 332 332 331 331 331 330 330 332 333 333 330 330 330 331 332 332 332 333 331 329 329 331 329 328 330 330 330 330 331 333 332 332 332 332 332 332 332 330 330 331 331 331 332 331 331 330 331 331 329 329 329 328 328 328 326 323 324 325 325 325 325
341 342 341 341 340 340 340 340 339 339 339 339 338 338 338 338 338 338 337 337 336 335 334 334 334 333 332 330 331 331 331 330 330 330 328 330 330 331 334 334 332 333 332 330 331 333 329 327 330 330 330 331 331 332 332 332 333 332 332 331 331 330 330 331 331 332 331 331 331 330 331 330 330 330 329 328 328 328 327 326 326 326 326 326 326
340 341 341 341 340 340 340 340 340 339 339 339 338 338 338 337 337 337 336 336 336 336 335 335 334 334 333 331 331 331 330 329 328 327 327 329 330 331 334 334 332 332 332 331 333 334 330 328 330 329 330 332 331 331 331 331 332 330 330 331 331 331 330 331 331 332 331 332 332 330 331 330 329 330 330 329 328 328 328 326 326 326 327 328 327
340 339 339 339 339 339 339 339 340 339 339 339 338 338 338 337 337 336 336 335 335 335 335 334 333 333 332 331 331 330 330 330 329 328 328 329 330 330 331 332 332 332 332 331 333 333 330 329 330 331 331 331 331 331 329 329 329 330 331 331 331 331 331 331 330 331 332 332 331 330 330 329 328 330 330 329 329 329 329 328 327 326 326 328 328
338 338 337 337 337 338 337 337 338 337 337 337 337 336 336 336 336 335 335 335 335 335 335 334 333 333 332 332 332 330 329 330 330 329 328 328 330 329 329 329 331 332 331 331 332 332 329 329 330 332 332 330 332 332 329 328 328 330 330 331 331 331 331 331 331 331 331 330 330 330 330 328 328 328 328 328 329 329 329 328 328 326 326 327 327
337 336 336 336 336 336 336 336 336 336 336 336 335 334 334 335 336 335 334 334 334 334 334 334 334 334 334 333 333 331 330 330 330 329 328 328 329 329 328 328 330 332 331 330 332 333 330 329 331 331 330 331 332 332 331 330 328 329 330 331 332 332 331 332 332 332 331 331 330 329 329 329 328 328 328 329 329 329 329 328 328 327 327 327 327
335 335 335 335 336 335 335 335 336 335 335 334 333 333 335 336 335 335 335 335 336 335 335 335 334 333 333 333 333 333 332 330 329 330 329 329 329 330 329 328 330 331 331 329 331 335 333 330 330 329 327 329 331 332 332 330 329 329 329 331 332 331 331 332 332 333 332 331 330 329 329 329 328 327 328 328 328 329 328 328 328 327 327 328 328
334 334 334 335 335 335 334 335 335 335 335 334 333 334 336 336 335 335 335 335 335 335 334 333 333 333 333 332 332 333 332 331 330 330 331 330 330 330 329 329 329 330 331 330 330 332 333 333 332 329 328 329 330 332 331 330 330 329 329 330 330 330 331 331 331 333 332 331 331 331 329 329 328 328 328 328 328 328 328 329 328 327 328 328 327
334 334 334 334 334 334 334 334 334 334 334 334 334 334 335 334 334 335 336 336 335 335 334 333 332 332 332 331 331 332 332 332 331 330 332 332 331 331 331 331 330 329 330 331 331 330 331 333 333 331 330 329 329 330 331 331 330 330 330 330 330 331 331 330 330 331 331 331 331 331 330 329 328 328 328 329 329 327 327 328 327 327 328 328 326
334 334 334 333 333 334 334 334 334 334 334 334 334 335 334 334 334 335 336 335 334 334 333 333 332 331 330 330 331 333 332 332 331 331 332 332 332 332 332 332 331 330 330 331 331 330 330 331 331 330 330 329 328 329 330 331 330 330 330 330 330 332 331 331 332 331 330 330 331 331 331 330 329 328 328 329 329 328 328 328 327 327 328 328 326
332 332 332 332 331 332 333 333 334 334 334 333 334 335 335 335 336 336 336 335 334 332 332 332 331 330 330 329 331 332 332 331 332 331 331 331 331 331 331 332 332 331 331 331 331 331 331 331 330 329 330 329 329 329 329 330 330 330 331 330 330 331 331 332 333 332 331 330 331 331 331 329 328 329 329 329 328 328 328 328 327 328 328 328 327
329 329 329 329 329 330 331 332 332 333 333 334 333 334 335 335 335 335 335 335 334 333 332 332 330 329 330 331 330 330 329 330 330 330 329 329 329 329 330 331 331 331 331 331 331 331 331 331 330 328 329 329 329 328 329 330 331 331 332 331 331 331 332 333 333 332 331 331 330 331 331 330 329 329 329 328 328 328 328 329 328 328 328 328 328
Wind_Speed
13 13 17 18 17 16 16 16 14 13 13 13 13 13 12 11 10 9 8 6 5 5 5 6 8 10 11 12 13 15 16 16 16 15 16 16 16 15 15 15 14 14 14 14 14 15 15 15 15 15 14 13 12 12 12 12 12 12 13 13 14 14 14 14 14 15 14 14 14 14 14 14 14 13 13 13 12 13 13 12 11 10 11 11 11
15 15 19 19 18 17 16 16 15 14 13 13 13 13 13 12 11 10 8 7 5 4 5 6 8 10 11 12 14 15 15 15 15 15 16 16 16 16 16 15 14 15 15 16 16 16 16 16 15 15 14 13 12 12 12 12 12 12 12 12 13 14 14 14 14 14 13 13 13 13 12 12 12 12 11 12 12 12 11 11 9 9 9 8 8
16 15 20 20 18 17 16 16 15 14 13 13 13 13 13 12 12 10 9 7 5 4 5 7 9 11 11 12 14 15 15 15 15 15 16 16 17 17 16 16 16 16 16 17 16 16 16 15 15 15 14 13 12 12 12 11 11 11 11 11 12 12 12 12 12 13 13 13 12 12 12 11 11 10 10 10 10 10 9 8 8 8 8 6 5
16 15 21 20 18 18 16 15 15 14 14 13 13 13 14 13 12 10 9 7 5 4 5 8 10 11 11 12 13 14 14 14 15 15 15 16 18 18 16 16 16 16 16 16 16 16 16 15 14 14 13 12 12 12 11 10 10 9 9 8 8 9 10 10 11 13 15 16 14 13 12 9 9 9 8 9 8 8 8 7 7 8 9 7 6
17 16 21 21 19 18 16 15 15 14 14 13 13 13 14 13 12 11 9 7 5 4 6 9 10 11 11 12 13 14 14 14 14 16 15 16 19 18 16 16 16 16 16 16 16 16 15 14 13 13 12 12 11 10 9 9 8 7 6 6 6 6 8 10 12 15 18 17 15 13 12 10 9 8 7 7 8 8 7 8 8 9 10 9 8
17 16 19 22 20 19 17 15 14 14 13 13 14 13 14 13 12 11 9 8 6 6 8 10 11 11 12 12 13 13 13 14 14 16 16 16 18 17 16 16 16 15 15 15 15 14 14 13 12 12 11 10 10 9 8 8 8 8 7 7 6 7 8 11 15 18 18 17 15 11 11 11 9 6 5 6 7 8 8 8 8 9 10 9 9
17 16 18 20 21 20 17 15 14 12 12 13 14 13 14 13 12 11 10 8 7 7 9 10 11 11 12 12 12 12 13 14 15 16 16 16 17 18 16 15 15 15 14 14 13 12 12 11 11 10 10 9 9 8 9 9 9 9 10 10 10 11 11 13 17 18 17 15 12 9 8 9 7 6 5 6 8 8 9 8 7 7 8 8 10
16 16 18 17 18 20 18 15 13 12 11 12 13 14 14 13 12 11 10 8 7 8 10 10 11 12 12 12 12 12 12 13 14 16 16 15 17 19 16 14 14 14 13 12 12 11 10 10 9 9 9 9 9 9 9 10 10 11 12 13 14 15 15 17 18 18 17 13 10 9 9 8 6 6 6 7 8 9 10 8 5 5 7 9 10
15 16 18 15 16 19 17 15 13 12 11 12 13 14 14 13 12 11 10 8 8 9 10 10 11 12 12 12 12 12 12 13 14 15 15 15 17 19 18 14 13 13 12 12 11 10 9 9 9 8 9 10 10 10 10 11 11 13 13 15 16 18 20 20 19 18 15 11 10 10 11 9 7 8 9 8 8 9 10 8 5 4 6 8 10
15 17 17 13 16 18 15 14 12 11 10 11 13 14 14 13 12 11 10 8 9 10 10 10 11 11 11 12 12 11 12 12 13 14 14 15 16 17 17 15 14 13 12 11 10 9 9 10 10 9 10 10 11 11 12 13 14 15 15 16 19 21 22 21 20 17 12 10 9 11 12 9 8 9 9 9 7 7 7 6 7 7 7 7 8
15 16 14 11 16 18 14 12 10 10 10 10 12 13 13 12 11 10 9 9 9 10 11 11 11 11 11 12 11 11 12 11 11 12 13 14 15 14 14 14 14 13 12 11 10 10 11 12 11 11 11 11 12 14 15 16 18 18 18 19 21 24 22 20 20 14 11 13 12 10 8 6 8 11 11 9 7 6 6 7 9 9 8 8 9
14 13 12 12 18 18 13 12 10 10 10 10 11 11 11 11 11 10 9 9 10 11 11 11 11 11 10 11 11 10 11 11 11 11 12 13 13 12 13 14 14 14 13 12 12 12 12 12 12 12 12 12 14 16 17 18 20 20 20 22 24 25 22 21 18 12 11 13 12 12 9 7 10 13 12 11 10 9 9 10 11 10 10 10 9
13 12 11 12 19 18 13 12 10 10 10 10 10 10 10 10 10 9 9 9 10 12 11 11 11 10 10 10 11 10 10 11 11 10 11 12 12 12 13 15 16 15 14 13 13 13 12 12 12 12 12 14 16 17 18 19 20 20 21 23 26 25 22 21 16 11 11 12 12 10 9 12 14 15 13 12 12 11 11 12 12 11 10 10 10
14 13 11 11 18 17 12 12 10 10 10 10 9 9 9 9 10 9 9 10 11 11 11 11 11 10 10 10 11 11 10 11 12 11 10 11 12 12 13 15 16 15 14 14 14 13 12 12 12 12 13 15 16 17 18 19 20 20 21 23 25 24 23 18 12 12 12 12 12 9 11 15 15 15 14 13 13 12 11 11 11 10 10 10 10
13 12 10 11 16 16 12 11 10 10 9 9 8 8 9 9 9 9 9 10 10 10 10 11 10 10 9 9 10 11 10 11 12 11 10 10 12 13 14 15 15 15 15 14 14 13 12 12 12 13 14 15 16 17 17 18 18 18 18 21 24 23 22 16 10 11 11 11 10 10 12 14 14 14 13 13 13 12 11 11 10 10 11 11 12
13 12 10 11 15 15 12 11 10 9 8 7 7 7 8 8 8 8 9 9 9 9 9 10 9 9 9 8 9 11 10 11 12 12 11 10 10 13 14 15 15 15 14 15 14 13 12 12 13 13 15 16 16 16 16 17 18 17 17 19 22 22 21 16 9 9 10 10 9 11 13 13 13 13 13 13 13 12 12 11 11 11 12 13 13
14 13 11 12 14 13 11 12 11 10 8 7 7 7 7 7 8 8 8 8 8 8 8 8 8 8 8 8 9 10 10 11 12 12 11 10 9 11 14 16 16 15 14 14 14 13 13 13 13 14 15 16 16 17 17 17 18 18 18 18 20 20 20 16 10 9 10 9 7 9 12 11 12 12 12 12 12 12 11 11 11 11 12 12 12
14 15 15 14 12 12 10 11 12 12 10 9 9 9 9 10 10 10 10 10 9 8 8 8 8 8 8 8 8 9 10 11 12 12 12 11 9 9 13 16 16 15 14 14 13 13 14 13 13 14 15 16 16 16 16 17 17 18 18 18 19 19 19 16 11 10 9 8 6 8 9 10 11 11 11 11 10 10 10 10 9 9 10 10 10
15 15 16 16 14 13 12 13 14 14 14 12 12 12 12 12 11 11 11 10 10 9 8 8 8 8 8 8 7 7 8 10 12 13 13 12 10 9 11 15 16 16 15 14 13 13 14 13 13 13 14 15 15 16 16 16 16 17 17 17 18 19 19 14 9 9 7 5 6 7 8 9 10 10 10 9 9 9 9 8 8 8 8 9 9
14 13 14 19 18 15 15 16 16 17 17 16 15 15 15 14 13 12 12 11 11 10 9 8 9 9 8 7 7 5 5 8 11 13 13 13 12 10 11 13 15 16 15 14 13 13 13 13 11 12 12 13 14 15 15 15 15 15 15 15 16 18 15 10 8 7 5 4 6 6 6 8 8 8 8 7 7 7 7 6 6 6 7 7 7
13 14 15 18 17 15 16 17 17 18 19 19 19 18 17 16 16 14 13 13 12 11 10 9 9 10 9 8 7 5 3 4 7 11 13 14 14 12 11 12 14 15 16 15 13 13 13 12 11 10 10 11 11 12 13 13 13 13 13 12 15 14 10 9 8 7 5 2 4 5 5 6 7 7 6 6 6 5 5 5 5 5 5 5 5
14 16 17 16 16 16 17 18 19 19 19 20 20 19 18 18 17 15 14 13 12 12 10 10 9 10 9 8 8 6 4 3 4 7 11 14 14 13 13 13 13 14 15 15 13 13 12 12 10 9 8 8 9 10 10 10 11 11 10 12 13 9 7 9 8 7 5 1 2 3 3 5 5 6 5 5 5 4 4 4 4 4 4 3 4
15 16 17 16 17 17 18 19 20 19 19 19 18 18 18 17 17 16 15 14 13 11 11 10 10 11 10 10 10 10 8 6 6 6 6 10 14 15 14 14 13 12 12 13 12 12 12 11 10 8 7 6 7 8 7 7 8 8 9 10 9 5 7 9 7 6 3 2 1 2 3 4 4 4 5 4 4 4 3 3 4 4 3 2 2
14 14 14 16 18 19 19 19 19 20 19 18 18 18 17 17 16 15 14 14 13 12 12 11 11 11 11 12 12 13 12 10 10 7 4 7 11 14 15 14 14 12 11 12 11 10 11 11 10 9 7 6 5 4 3 3 4 5 7 6 5 5 5 6 6 6 2 2 2 1 2 3 3 3 3 3 4 4 3 3 3 3 3 2 2
12 12 13 15 17 19 20 19 20 20 19 19 19 18 17 16 15 14 13 14 14 13 14 13 12 12 13 13 13 14 14 12 10 8 6 7 9 12 14 14 15 13 12 11 10 9 9 9 9 8 6 6 5 5 5 2 1 3 3 3 4 5 4 4 5 6 1 2 3 1 2 2 2 2 2 2 2 3 2 2 2 2 3 2 2
11 12 13 15 17 19 19 19 21 20 19 18 17 16 16 15 14 14 14 14 14 14 15 14 14 15 15 14 12 14 15 13 11 9 8 8 8 10 12 14 16 16 14 12 10 9 9 9 9 8 5 5 6 7 6 4 2 2 3 3 4 3 2 3 4 4 1 3 3 2 2 2 1 1 1 2 2 2 2 2 1 1 1 2 1
9 10 12 14 16 17 18 20 20 19 19 17 15 15 15 14 15 15 15 14 14 14 15 16 17 16 16 15 12 12 13 13 13 12 10 8 7 10 12 14 15 16 14 12 11 10 10 10 10 8 7 7 8 7 6 5 4 3 3 3 4 3 2 3 4 5 1 2 3 3 2 2 0 0 1 1 1 1 2 2 1 1 1 2 1
7 9 11 12 13 15 16 18 17 16 18 16 14 15 15 15 16 16 16 16 15 15 15 16 18 17 16 15 13 12 12 13 15 15 13 10 8 10 12 12 12 14 14 12 12 12 11 12 11 10 9 9 8 7 6 5 5 4 4 3 3 3 3 3 4 5 3 1 1 3 2 1 0 0 0 1 1 1 0 1 1 0 1 1 1
6 8 10 10 11 14 16 16 14 14 15 15 16 15 15 16 16 17 16 15 15 15 15 16 17 14 14 14 13 14 13 13 15 14 13 12 11 11 12 11 11 12 14 15 13 13 13 13 12 11 10 9 9 8 7 6 5 5 4 3 3 4 4 4 4 5 5 1 1 2 1 0 1 1 1 1 2 1 1 1 1 0 0 1 1
5 6 8 8 9 12 14 15 14 14 14 14 16 16 15 16 16 15 14 13 14 14 14 15 13 11 12 13 13 14 14 13 14 13 13 12 12 13 12 12 12 13 16 16 14 14 15 14 13 13 11 10 10 8 8 7 6 5 5 5 4 4 4 4 5 5 5 4 3 2 2 1 2 2 1 1 2 2 2 1 0 0 1 0 1
4 6 7 8 8 9 11 12 13 14 14 13 14 14 13 14 14 13 12 13 14 11 11 11 9 9 12 13 13 14 13 12 13 13 12 11 12 13 13 13 13 16 16 16 16 16 16 14 14 13 11 11 10 9 9 7 7 7 6 6 6 5 4 5 5 5 5 4 3 1 1 2 2 2 1 1 1 1 1 1 1 1 1 1 2
2 3 5 5 6 8 9 11 12 13 13 12 11 11 11 12 13 12 11 11 12 9 9 9 8 10 12 13 14 15 13 12 13 13 13 12 13 13 14 13 13 15 15 16 17 16 16 15 14 14 13 13 11 10 9 7 8 7 6 7 6 5 5 5 4 5 5 4 4 3 2 2 3 2 2 2 2 2 2 2 1 0 1 2 3
1 2 3 4 5 8 9 10 11 10 10 10 10 9 9 10 9 9 9 9 10 9 8 8 8 10 11 12 14 15 14 14 14 14 13 13 14 14 14 14 14 14 14 16 17 16 16 16 16 17 16 15 12 11 10 9 8 7 7 7 6 5 5 4 4 5 5 5 5 5 4 0 2 1 1 1 2 3 3 1 1 1 1 2 3
2 2 4 5 6 8 10 10 10 9 9 10 9 8 8 9 10 10 9 8 10 10 10 10 10 11 12 12 13 16 15 14 14 13 14 14 14 15 14 15 16 15 14 16 17 17 17 16 17 18 17 15 13 13 12 10 9 8 8 7 7 7 6 5 5 6 6 6 5 5 5 4 2 1 1 1 2 2 3 2 2 1 2 4 5
3 2 3 4 6 7 8 9 8 7 8 8 7 7 8 10 10 10 9 8 9 11 12 13 13 12 11 12 14 17 17 16 14 13 14 15 15 15 15 15 16 15 16 16 16 17 17 18 18 17 17 16 14 14 13 11 10 9 9 8 8 7 6 6 7 6 6 6 6 6 6 6 4 3 2 1 1 1 2 1 1 3 4 6 9
2 2 2 3 5 5 5 6 6 6 7 6 6 7 8 8 8 9 9 8 8 11 13 14 14 11 9 12 14 16 17 17 16 15 16 16 15 15 16 17 16 16 17 17 16 17 17 18 18 17 17 17 15 14 13 12 12 11 10 10 9 8 7 8 7 6 7 6 5 7 6 6 6 5 3 2 1 0 1 1 3 6 7 10 11
2 3 2 3 4 4 3 4 5 5 7 6 6 7 7 7 7 8 8 7 8 10 12 14 14 9 9 13 14 15 17 17 17 17 16 15 16 16 17 18 18 17 18 18 18 18 18 18 18 18 18 17 15 15 14 13 12 12 12 11 9 8 9 10 9 7 8 7 7 8 7 6 6 4 4 3 2 2 3 5 7 7 9 11 11
1 3 3 2 3 3 3 4 5 6 6 6 6 6 7 8 8 9 9 10 9 11 14 16 15 11 12 15 14 16 17 19 19 17 15 15 16 18 19 20 20 19 19 19 19 20 20 18 17 19 19 18 16 16 15 13 12 12 12 12 10 10 10 12 11 8 8 8 8 8 7 7 6 4 4 3 2 4 6 6 8 8 8 9 9
3 3 2 2 2 2 2 2 3 4 4 4 5 5 6 9 9 10 11 11 11 12 15 16 16 15 15 15 15 18 17 18 17 15 16 16 17 19 20 21 20 20 19 18 19 20 20 20 18 19 19 18 17 16 15 13 13 12 11 10 11 13 12 13 12 9 8 8 8 7 6 6 6 6 5 3 4 6 7 6 7 7 6 6 6
3 3 1 1 1 1 1 1 2 3 3 3 3 3 5 8 9 9 10 12 12 12 15 16 16 16 17 16 16 19 18 16 15 15 17 17 18 19 19 19 18 18 18 18 18 19 21 21 20 19 18 17 17 16 15 14 13 12 11 11 13 14 13 13 12 9 9 9 8 7 6 6 6 6 5 5 5 6 8 8 5 5 5 4 3
3 3 2 1 1 2 1 2 2 3 3 3 3 5 6 7 8 7 9 12 12 12 14 16 16 16 17 17 17 18 18 18 17 18 18 19 20 19 17 18 18 17 18 19 18 18 22 21 20 20 18 17 18 16 16 15 14 13 14 14 14 14 14 14 12 11 11 9 8 8 7 7 8 6 4 5 4 4 7 8 6 5 5 4 3
3 3 3 2 2 3 2 2 3 3 4 6 7 8 8 8 8 9 11 11 12 13 15 16 16 15 17 18 19 19 19 21 20 20 21 21 21 19 17 18 18 18 19 20 18 19 22 22 21 20 19 19 18 17 18 17 16 15 15 15 14 14 14 16 14 11 11 9 9 10 8 9 10 6 4 4 4 3 5 7 7 6 5 4 4
3 3 2 1 2 3 3 3 3 4 5 6 7 8 8 8 8 10 12 13 13 14 15 16 16 16 17 19 21 21 21 22 22 21 23 22 21 20 18 19 20 20 20 19 19 21 23 22 21 20 20 20 18 18 19 18 18 16 15 14 14 14 14 16 16 13 12 12 10 10 10 10 10 8 6 5 5 4 4 5 6 7 7 6 6
4 4 3 2 1 1 1 3 4 4 4 4 6 7 8 8 9 11 12 13 13 13 15 16 16 16 17 19 21 22 22 23 22 21 22 22 22 21 19 20 22 22 21 21 21 23 22 21 20 20 20 19 17 19 20 18 19 18 17 15 13 14 14 15 16 14 14 14 12 12 11 10 9 9 9 6 5 6 6 5 5 6 7 6 6
5 5 4 4 3 2 2 1 3 3 2 3 4 6 7 7 8 10 10 10 10 11 13 14 16 16 16 17 19 21 23 23 22 22 22 22 21 21 20 22 24 23 24 24 22 21 22 22 21 21 22 20 18 19 19 18 20 19 19 16 11 12 13 12 14 14 14 14 13 13 12 9 9 9 9 8 7 7 7 7 6 6 6 5 5
6 5 5 6 5 5 5 5 5 4 3 3 3 2 4 4 5 7 8 8 9 9 11 12 16 17 17 18 19 20 22 23 23 22 22 22 21 20 20 22 24 23 24 26 23 21 22 23 23 24 24 22 20 19 18 18 20 20 20 19 14 11 11 13 14 12 13 13 12 13 12 10 10 10 11 11 9 9 7 7 7 6 6 5 5
7 6 7 7 6 7 8 8 6 5 4 4 2 0 2 4 5 6 7 8 9 10 11 12 15 16 16 18 18 18 20 22 23 22 21 21 20 20 20 22 23 23 25 27 26 23 22 22 23 24 24 22 22 21 19 19 22 23 22 21 17 13 10 14 15 13 12 13 11 11 11 11 10 10 11 11 10 10 9 8 8 6 5 5 6
7 7 8 8 8 9 8 7 5 4 4 4 3 1 1 3 5 7 7 8 9 10 11 12 13 13 15 16 16 16 17 19 20 20 19 20 21 21 21 22 22 23 25 27 26 26 24 22 24 24 23 23 23 22 20 20 23 25 23 22 20 15 11 11 13 13 13 14 13 12 10 11 10 10 11 11 10 10 10 10 9 6 6 6 6
7 7 7 7 7 7 6 5 4 4 4 3 2 2 2 4 5 6 6 8 9 10 10 11 11 11 12 13 13 14 14 15 17 18 19 19 20 21 21 21 22 22 24 25 25 26 26 25 26 26 24 23 23 22 22 22 23 24 23 23 21 17 14 11 11 12 12 13 14 14 13 12 11 11 12 12 11 11 10 10 9 7 6 5 5
7 6 6 6 5 4 4 4 3 3 4 3 2 2 4 5 5 6 7 9 10 10 10 11 11 9 9 9 9 9 9 10 14 16 17 18 19 20 21 21 21 21 24 25 25 25 26 27 27 26 25 25 23 24 24 22 22 23 22 22 21 19 16 14 12 12 11 10 12 14 14 13 13 13 13 12 12 12 10 10 9 7 6 6 5
6 6 6 6 5 5 5 4 3 2 1 3 2 3 4 6 7 7 9 11 12 12 11 11 10 7 7 8 8 8 8 9 11 13 15 17 18 20 20 20 20 21 23 26 25 24 25 27 28 28 27 26 25 24 25 23 22 22 21 21 20 18 16 14 13 12 12 11 11 13 14 13 12 14 14 13 12 10 9 9 9 9 9 8 6
Wind_Direction
150 169 181 172 167 165 158 156 158 159 161 161 164 166 167 170 172 174 173 167 142 117 111 108 106 99 91 88 86 87 90 93 99 105 111 114 112 107 104 102 100 98 98 99 100 102 103 103 103 101 100 102 104 106 106 106 105 101 98 96 94 91 90 88 87 86 83 80 78 76 78 80 81 82 84 83 83 83 78 75 73 71 70 68 68
154 163 177 173 169 167 162 160 161 163 165 166 168 169 171 175 178 180 176 171 147 121 118 116 113 103 95 93 87 90 98 101 104 109 114 116 114 109 105 101 98 98 100 102 102 102 104 102 102 102 101 102 103 105 105 106 106 102 100 98 95 95 92 89 86 83 78 74 73 73 75 77 79 80 83 84 83 82 76 70 65 61 61 58 59
154 161 173 173 170 168 166 164 165 167 169 171 172 173 175 180 183 183 177 171 151 129 126 125 117 106 100 97 89 93 103 108 110 113 117 118 116 110 104 102 101 102 103 103 104 104 102 100 101 102 102 102 102 102 103 104 103 102 101 99 99 97 92 88 85 81 73 66 69 73 73 72 73 74 76 79 80 75 68 58 47 39 42 39 42
151 158 172 173 170 170 169 168 170 171 173 175 177 178 179 182 185 183 178 170 158 140 135 132 119 109 106 102 94 95 105 113 114 114 116 118 116 108 103 103 103 105 106 105 105 104 101 100 100 101 102 101 99 98 100 101 99 99 97 97 98 96 92 85 86 84 71 61 59 61 63 66 65 62 64 65 65 58 50 41 32 35 43 47 50
150 157 168 171 171 172 172 173 174 174 177 179 180 181 181 183 185 184 180 174 165 150 142 135 120 113 111 105 101 98 106 116 116 115 115 118 117 109 106 107 106 107 106 107 107 104 101 101 101 100 100 98 96 97 97 94 91 87 84 86 89 95 90 87 93 86 73 64 59 55 48 55 62 53 52 52 49 42 33 31 37 50 54 55 59
153 158 165 171 174 173 173 177 177 179 179 181 182 182 183 184 187 186 183 181 173 156 146 137 124 119 115 111 108 104 106 114 118 120 120 121 119 112 110 110 109 109 107 108 107 104 101 102 102 100 98 96 94 91 87 83 79 77 77 79 85 95 92 96 99 87 76 67 63 65 52 56 68 53 45 51 48 42 37 31 39 55 57 58 64
155 159 162 171 176 173 174 178 178 182 181 184 184 183 187 187 190 189 188 189 174 156 148 139 129 124 117 115 114 109 107 113 119 123 125 123 122 118 113 113 113 110 110 108 106 104 103 103 101 100 96 91 88 83 80 76 74 75 76 81 90 97 96 99 100 89 81 74 70 79 71 67 66 52 53 58 49 47 49 38 35 51 57 65 74
152 158 159 167 176 172 174 176 177 181 183 187 186 186 189 191 193 193 195 190 170 155 151 143 134 127 119 119 121 114 111 115 121 124 127 129 127 124 117 115 116 116 116 111 109 106 103 103 100 96 89 84 83 81 79 78 81 83 83 86 92 99 99 95 92 83 75 75 78 76 73 75 68 67 69 62 57 60 61 51 47 57 57 62 69
151 157 158 167 177 173 173 174 175 179 184 189 188 191 192 193 196 198 198 185 165 155 154 150 138 129 123 123 125 120 116 118 122 125 130 134 132 130 127 125 126 124 120 114 109 105 105 104 99 94 88 87 86 84 84 87 90 92 93 92 94 97 95 90 83 75 72 77 89 97 95 84 72 78 79 74 76 76 72 65 77 87 65 56 57
151 156 161 174 178 172 173 172 173 177 183 189 189 192 193 194 196 199 196 178 164 158 158 154 140 132 130 127 127 125 121 118 122 126 129 134 135 136 136 135 135 129 121 114 110 109 105 99 95 93 93 93 92 92 92 94 96 99 99 97 97 93 87 82 75 69 74 79 92 123 123 100 83 82 83 87 88 79 74 70 80 89 79 63 58
152 157 163 178 176 170 172 171 171 176 183 189 190 192 192 194 194 197 190 174 166 161 162 156 142 136 135 130 129 128 125 120 120 124 125 129 133 133 132 131 131 127 121 117 115 109 101 96 93 92 94 96 98 98 97 98 99 99 99 101 99 93 86 80 76 70 76 77 79 101 103 94 90 87 87 89 90 79 76 78 82 87 82 74 69
153 154 163 179 172 165 169 168 170 176 183 189 190 194 193 194 193 192 186 176 169 167 166 156 145 143 141 136 133 132 131 125 120 124 125 126 129 129 126 124 124 125 123 120 115 108 102 97 93 93 97 100 103 102 99 100 98 97 99 100 96 91 86 80 79 82 87 85 87 94 91 89 88 88 90 89 89 84 82 83 83 84 81 79 78
153 159 165 177 168 162 164 164 170 175 181 189 191 196 195 194 192 190 187 181 176 173 168 157 151 151 148 145 140 137 135 131 127 129 131 130 130 127 121 120 123 125 124 120 115 111 105 100 98 99 102 106 108 105 102 101 99 98 98 97 95 93 88 81 83 91 91 89 92 99 100 94 89 89 92 91 92 89 86 85 84 84 84 83 81
159 168 164 174 165 155 157 158 165 172 176 187 191 198 198 197 194 191 190 187 184 176 167 160 159 157 157 157 148 143 140 135 134 136 138 137 133 130 124 122 125 126 125 121 118 113 106 103 104 105 108 111 111 110 107 104 101 101 101 99 96 95 90 83 85 89 88 91 93 92 89 90 91 92 92 93 94 92 90 85 86 89 88 87 87
160 166 163 175 160 144 151 154 158 164 169 180 190 198 198 198 192 191 191 189 187 176 167 164 166 166 166 165 152 147 145 141 138 139 143 142 137 134 131 128 128 128 127 125 121 113 107 107 108 109 111 111 112 113 110 107 104 103 103 101 98 96 93 91 89 89 91 94 93 86 85 88 93 95 96 97 95 94 91 87 87 92 93 90 93
152 154 154 161 149 140 148 149 151 155 158 169 183 194 194 195 189 184 185 184 184 174 169 169 170 173 173 169 156 152 151 147 143 143 144 144 142 138 136 133 131 132 132 130 123 114 110 111 111 111 113 112 112 110 109 106 103 100 99 100 102 103 100 98 93 86 88 89 87 88 91 93 96 99 101 100 97 95 93 90 87 90 94 93 95
150 146 142 141 139 142 144 143 148 147 147 156 167 175 175 174 166 163 165 164 168 165 166 168 169 173 175 173 166 162 157 152 151 151 147 146 147 141 139 137 135 137 138 134 126 119 116 117 116 115 115 114 112 110 109 105 102 99 95 96 100 104 105 103 101 98 97 98 97 96 97 98 98 98 97 97 97 97 96 95 91 91 94 96 97
149 137 131 127 132 142 142 143 146 142 140 142 143 142 142 144 142 142 145 146 147 149 152 153 157 164 172 177 177 173 164 159 161 159 153 151 153 148 143 141 141 142 142 139 131 125 123 121 118 117 116 114 114 111 109 107 105 101 98 98 96 98 96 91 91 95 103 119 116 100 100 102 100 98 98 100 101 103 102 101 101 100 102 104 104
145 133 133 132 141 153 159 157 151 147 145 146 144 142 142 140 141 142 142 142 141 142 143 141 144 152 164 175 182 186 175 166 167 165 162 159 158 158 151 147 147 147 147 143 137 133 131 127 120 118 118 116 114 112 111 109 106 105 105 103 99 89 80 78 84 90 101 122 114 99 101 103 102 104 108 111 111 110 109 110 114 116 116 115 115
138 141 152 149 155 167 168 161 155 157 161 164 162 160 158 152 151 150 147 147 146 147 145 141 140 144 153 164 176 184 173 168 173 172 168 167 166 166 162 157 154 152 151 147 143 141 140 136 127 120 119 118 115 113 112 110 108 108 109 107 100 89 79 88 100 93 99 114 108 102 100 101 103 108 113 118 120 117 118 123 125 126 125 124 124
144 156 163 155 161 173 165 157 160 169 174 174 170 167 165 161 157 155 154 153 153 152 149 147 144 144 149 154 162 168 160 172 183 180 176 174 174 172 171 169 166 161 156 153 150 147 148 144 136 129 120 116 114 112 111 110 110 108 109 103 92 88 88 96 94 84 80 85 100 103 104 106 109 111 115 120 124 127 131 135 136 133 134 135 132
162 165 165 164 171 175 170 166 170 178 179 173 169 168 166 165 161 160 162 163 163 159 156 155 152 153 155 157 159 168 184 202 195 191 189 183 179 179 178 178 181 172 160 158 157 153 154 149 143 138 125 117 109 102 102 104 106 107 102 90 82 86 97 96 96 97 100 154 98 103 118 116 120 122 125 128 133 142 146 147 149 147 147 145 134
174 172 169 175 177 177 179 178 178 181 182 176 172 171 171 171 168 169 170 171 173 168 166 164 162 164 166 170 170 174 186 198 202 205 208 194 186 185 184 184 189 185 170 162 160 160 158 156 150 142 139 130 106 90 90 95 104 102 79 73 82 89 89 89 97 100 104 217 135 111 129 125 132 137 142 150 156 160 162 167 172 168 156 150 153
175 177 178 183 181 183 185 183 186 186 185 183 182 180 178 176 174 176 178 177 175 173 175 173 172 174 174 181 183 180 183 191 202 211 215 210 197 190 189 189 192 194 184 168 164 168 163 160 155 152 156 132 109 110 118 106 91 77 62 73 100 88 81 88 97 96 93 189 158 161 135 126 138 146 160 165 169 173 177 175 174 176 162 159 188
176 184 188 190 187 191 190 187 190 188 187 186 188 187 183 182 182 186 187 184 182 179 181 182 181 182 181 188 192 187 188 192 201 208 202 203 199 194 193 193 195 197 193 177 168 176 172 170 166 163 157 124 135 168 172 182 67 74 103 130 108 91 101 100 99 103 114 220 168 175 154 134 141 148 174 172 173 181 189 189 159 158 161 170 197
184 192 196 197 195 196 194 194 191 185 187 188 189 189 189 190 191 196 194 191 191 185 185 190 192 189 185 188 192 190 192 194 194 197 198 199 193 188 192 199 200 201 199 179 169 185 182 190 184 170 166 156 178 184 174 178 159 147 165 140 100 100 122 111 116 119 240 247 166 167 149 130 142 145 170 173 186 202 207 215 180 143 172 208 223
179 186 194 201 202 199 196 197 191 183 186 191 192 192 195 195 196 202 201 199 197 195 197 198 199 195 187 187 190 192 191 189 191 193 194 198 190 177 184 203 207 208 207 177 173 192 186 198 196 180 188 190 190 184 179 180 163 172 192 149 122 139 146 130 134 128 170 250 169 170 148 135 140 98 143 177 200 218 225 218 203 210 245 258 260
172 177 190 201 204 202 201 198 193 190 190 191 196 199 201 203 207 209 209 206 199 204 209 203 203 199 192 189 186 191 192 189 196 197 190 187 189 184 184 199 204 207 208 186 188 198 187 197 199 192 197 194 192 184 183 186 168 179 201 164 145 167 158 150 148 143 155 292 199 164 135 147 165 358 294 156 172 155 226 204 184 220 259 273 295
174 181 194 203 205 203 206 206 201 201 200 198 200 204 208 210 214 215 212 209 204 207 209 208 211 203 194 194 186 188 192 191 197 197 190 184 187 192 190 193 191 195 203 195 196 201 192 196 198 196 198 194 194 188 186 191 183 190 199 178 178 185 170 165 158 154 156 135 215 187 128 44 6 321 270 139 138 121 133 151 143 245 117 288 306
179 191 196 196 204 204 205 208 210 209 208 210 211 214 219 217 220 219 213 213 215 211 206 212 215 204 200 200 190 188 192 192 194 193 191 188 188 194 195 195 187 188 199 196 193 199 196 196 196 194 195 196 195 192 193 196 194 198 197 190 193 191 185 181 165 165 168 158 184 187 113 57 13 347 292 159 147 140 136 120 321 310 77 44 348
193 202 195 194 203 206 201 201 209 214 212 215 219 225 228 224 226 226 221 220 223 216 212 217 211 209 211 205 195 191 193 193 192 191 192 194 195 198 200 199 191 191 199 196 194 198 194 194 196 193 193 196 195 193 196 199 200 202 201 198 201 195 191 194 180 174 177 169 175 177 98 78 44 19 22 85 125 117 76 18 315 360 43 64 71
220 222 194 194 202 207 207 202 208 213 214 218 224 231 236 237 235 229 229 230 229 226 227 228 217 219 219 211 202 195 194 195 198 197 195 199 201 202 203 201 197 197 197 194 198 201 196 195 193 191 192 192 193 196 197 200 203 203 200 202 208 203 200 203 196 183 176 169 169 201 255 67 79 75 65 51 39 2 351 346 285 359 34 86 94
225 267 211 208 213 208 208 207 208 209 214 222 226 235 245 247 239 230 232 232 231 234 238 238 230 227 225 220 213 206 203 202 206 204 200 205 205 203 203 200 200 202 197 196 201 201 199 200 196 196 196 192 192 196 197 200 202 201 197 206 209 201 205 199 196 197 178 176 183 207 249 286 85 101 100 4 358 335 332 329 262 232 130 129 114
155 218 210 218 219 204 199 200 203 208 217 221 220 228 242 242 238 239 241 233 230 232 239 243 241 237 233 230 223 219 219 216 213 210 206 208 209 206 203 201 201 202 201 201 205 202 199 202 204 203 201 198 198 199 200 199 201 203 204 212 211 204 204 193 205 211 183 185 197 203 225 215 213 257 240 285 318 315 325 309 248 177 141 136 124
156 163 187 205 205 202 201 204 209 217 224 224 220 224 237 244 248 253 254 250 242 240 244 248 251 251 248 244 232 225 228 228 224 220 213 209 210 208 204 203 202 203 204 204 207 206 202 204 206 206 205 204 203 202 201 201 203 205 209 212 209 207 202 202 212 211 195 196 200 202 208 200 207 248 242 221 299 313 335 302 169 132 126 124 121
163 143 164 174 182 204 208 209 215 224 231 230 230 233 237 244 255 262 264 262 255 254 256 259 262 263 261 256 242 231 232 233 232 230 223 216 215 212 206 205 204 205 207 206 205 206 206 207 204 203 206 205 203 204 203 204 205 200 208 212 210 206 197 210 214 204 204 196 203 210 196 197 213 228 223 202 256 284 69 106 127 124 124 120 119
180 145 136 146 162 193 209 202 201 222 234 231 231 233 239 249 260 264 266 266 263 262 261 261 263 262 261 263 254 241 236 234 236 236 230 222 220 218 211 208 206 206 209 209 206 204 207 208 203 200 203 204 202 205 202 204 205 201 211 213 209 206 202 215 210 201 211 194 204 215 189 196 216 215 212 212 230 178 120 116 117 119 124 119 117
45 120 128 143 150 165 196 202 195 213 222 225 234 238 249 257 260 264 268 270 269 267 266 264 265 262 259 263 255 243 238 235 234 234 232 229 228 226 219 213 207 205 209 210 207 206 207 207 206 203 202 201 201 205 203 202 203 203 213 213 204 204 209 222 211 200 219 206 201 213 197 197 206 212 216 212 204 167 139 130 125 122 122 117 114
61 91 129 154 155 148 164 192 190 207 220 230 243 251 261 268 269 272 277 278 277 274 274 272 267 262 262 266 256 243 237 234 230 228 235 240 237 233 227 220 210 205 207 209 207 206 207 206 206 206 204 203 200 204 204 201 204 204 208 208 208 212 214 222 216 203 220 218 199 205 212 206 205 218 219 207 200 170 154 152 141 136 131 122 115
81 89 124 146 184 188 135 170 182 191 224 241 250 263 269 280 282 281 284 286 287 279 274 276 270 264 267 271 257 242 234 231 231 232 239 245 244 239 232 227 218 210 208 207 205 205 208 207 206 207 206 205 203 204 204 201 202 199 196 202 213 221 219 217 211 198 214 220 199 199 209 207 209 217 217 210 211 194 178 172 167 167 163 158 140
68 95 132 155 203 225 208 239 235 211 220 237 253 262 262 275 283 282 280 282 288 283 276 281 281 274 273 269 255 246 243 239 239 240 241 245 248 245 239 237 229 220 216 209 202 206 211 208 207 208 205 206 205 204 206 200 194 193 196 206 214 217 217 216 208 198 209 214 202 202 202 212 219 210 205 210 214 214 193 182 187 193 181 183 173
55 84 118 153 195 207 213 243 259 245 248 253 258 266 267 271 276 276 278 279 286 289 284 282 279 274 275 270 256 249 249 246 245 247 246 246 249 247 243 245 237 228 227 217 204 206 212 209 208 207 204 206 208 207 208 202 202 208 205 204 210 212 214 218 213 204 207 208 204 204 199 212 217 197 185 211 210 199 188 186 190 189 182 180 175
57 61 88 112 176 186 198 219 235 234 249 260 260 268 275 276 277 279 284 285 286 289 286 280 275 271 273 271 260 253 253 252 251 251 248 246 251 251 247 249 244 235 235 228 214 210 212 211 208 204 204 206 207 210 213 209 208 210 201 196 202 204 209 215 212 207 208 209 210 207 206 210 206 195 195 209 205 181 178 197 197 193 188 180 178
60 53 54 46 90 180 202 222 238 231 235 262 271 276 282 286 288 288 287 286 286 288 287 285 281 275 273 270 262 255 253 255 255 252 249 248 251 254 253 253 248 241 239 235 224 216 214 213 208 204 205 204 205 212 215 215 212 206 199 199 201 201 206 210 208 208 210 210 210 210 212 210 201 201 202 199 196 178 176 198 199 195 193 186 187
61 57 54 57 62 39 19 340 309 302 278 286 294 289 286 290 297 299 297 295 295 293 290 291 287 281 277 271 264 256 252 254 256 252 250 249 249 250 251 252 250 244 242 237 229 221 216 215 210 207 205 200 205 215 215 214 215 211 205 199 197 207 211 205 200 206 212 211 213 211 212 212 209 209 202 193 193 182 180 195 192 190 193 187 194
49 44 50 56 50 31 22 17 1 350 347 339 328 301 284 288 292 293 294 295 292 289 289 288 287 286 280 271 264 258 255 255 255 253 249 247 248 249 250 253 251 246 242 238 233 225 218 217 217 216 212 204 205 215 217 213 212 214 212 205 204 210 203 194 191 195 204 208 213 211 207 209 211 212 205 197 197 194 189 199 201 194 186 179 198
48 38 43 51 46 36 31 28 23 8 2 5 23 66 274 285 285 283 286 287 284 286 289 286 285 286 282 273 262 256 256 255 251 248 245 247 248 249 251 253 253 249 244 242 239 230 223 220 220 222 222 215 210 212 216 216 212 213 215 211 212 212 198 194 191 187 192 195 201 207 205 205 206 210 208 199 201 202 188 194 211 199 179 185 202
66 55 50 53 46 41 38 32 27 16 360 4 25 45 283 284 287 287 287 286 286 288 291 291 289 284 279 274 264 255 254 250 243 238 240 246 247 248 250 250 253 252 247 247 245 239 231 225 223 223 223 219 214 212 213 217 215 214 213 210 209 210 207 204 198 195 192 184 189 200 201 203 204 206 206 199 205 209 194 196 209 192 177 196 198
87 77 68 60 46 38 38 32 30 26 360 4 29 360 323 311 303 296 285 280 285 290 293 295 293 282 274 270 260 254 251 246 239 236 241 245 244 248 251 249 250 248 245 246 245 241 235 229 228 228 226 222 216 214 214 217 219 216 213 211 210 210 212 212 206 207 203 188 187 191 192 198 200 201 203 201 204 208 204 204 202 185 181 200 195
103 93 76 60 50 49 51 35 25 30 356 346 360 322 311 307 302 299 290 283 284 289 291 291 288 278 269 263 251 242 236 238 237 236 240 244 244 248 251 251 250 245 243 244 243 240 235 231 231 231 229 224 216 215 217 216 216 215 214 213 213 212 209 207 205 206 206 198 187 183 187 198 199 195 197 203 204 202 204 205 193 184 191 197 189
73 69 55 47 48 50 52 31 8 34 346 310 305 299 300 299 298 296 290 286 287 287 287 285 279 263 251 250 242 228 219 221 225 231 242 248 249 250 251 252 252 248 245 244 242 240 236 233 233 232 231 224 217 217 219 215 210 210 212 212 211 210 206 205 207 203 200 198 188 182 185 192 196 194 194 201 202 195 199 204 192 186 193 193 184